Forks, WA

6:10 PM PST on December 07, 2016 (GMT -0800)
Quillayute

Weather History for KUIL - May, 2013

Change the Weather History Date:

Monday, May 27, 2013

  Actual Average Record
Temperature  
Mean Temperature 55 °F 53 °F  
Max Temperature 58 °F 61 °F 89 °F (1972)
Min Temperature 52 °F 45 °F 33 °F (1982)
Degree Days  
Heating Degree Days 10 12  
Month to date heating degree days 271 378  
Since 1 July heating degree days 5027 5420  
Cooling Degree Days 0 0  
Month to date cooling degree days 3 0  
Year to date cooling degree days 3 0  
Growing Degree Days 4 (Base 50)    
Moisture  
Dew Point 51 °F    
Average Humidity 85    
Maximum Humidity 93    
Minimum Humidity 77    
Precipitation  
Precipitation 1.11 in 0.15 in 1.86 in (1977)
Month to date precipitation 5.37 4.50  
Year to date precipitation 54.40 48.14  
Sea Level Pressure  
Sea Level Pressure 29.72 in    
Wind  
Wind Speed 6 mph (SE)    
Max Wind Speed 13 mph    
Max Gust Speed 23 mph    
Visibility 3 miles    
Events Rain    
T = Trace of Precipitation, MM = Missing Value Source: NWS Daily Summary

Daily Weather History Graph

Daily Weather History Graph

Search for Another Location

Airport or City:

Trip Planner

Search our weather history database for the weather conditions in past years. The results will help you decide how hot, cold, wet, or windy it might be!

Date:

Astronomy

May. 27, 2013 Rise Set
Actual Time 5:26 AM PDT 9:04 PM PDT
Civil Twilight 4:47 AM PDT 9:44 PM PDT
Nautical Twilight 3:55 AM PDT 10:36 PM PDT
Astronomical Twilight 2:42 AM PDT 11:50 PM PDT
Moon 11:42 PM PDT (5/27) 8:14 AM PDT (5/27)
Length of Visible Light 16h 56m
Length of Day
15h 38m
Waning Gibbous, 90% of the Moon is Illuminated
May 27
Waning Gibbous
May 31
Last Quarter
Jun 8
New
Jun 16
First Quarter
Jun 23
Full

Hourly Weather History & Observations

Time (PDT) Temp. Dew Point Humidity Pressure Visibility Wind Dir Wind Speed Gust Speed Precip Events Conditions
12:02 AM 53.6 °F 48.2 °F 82% 29.93 in 4.0 mi SE 3.5 mph - 0.00 in   Overcast
12:08 AM 53.6 °F 50.0 °F 88% 29.93 in 2.5 mi SSE 4.6 mph - 0.00 in Rain Light Rain
12:24 AM 53.6 °F 50.0 °F 88% 29.93 in 4.0 mi SE 3.5 mph - 0.00 in   Overcast
12:42 AM 53.6 °F 48.2 °F 82% 29.92 in 8.0 mi SE 4.6 mph - 0.00 in   Overcast
12:53 AM 53.1 °F 48.9 °F 86% 29.92 in 4.0 mi SE 4.6 mph - 0.00 in Rain Light Rain
1:12 AM 53.6 °F 48.2 °F 82% 29.91 in 3.0 mi SSE 5.8 mph - 0.00 in   Overcast
1:36 AM 53.6 °F 48.2 °F 82% 29.91 in 6.0 mi SSE 6.9 mph - 0.00 in   Overcast
1:53 AM 53.1 °F 48.9 °F 86% 29.90 in 9.0 mi SSE 5.8 mph - 0.00 in   Overcast
1:59 AM 53.6 °F 48.2 °F 82% 29.90 in 6.0 mi Variable 4.6 mph - N/A   Overcast
2:06 AM 53.6 °F 48.2 °F 82% 29.90 in 3.0 mi Variable 5.8 mph - 0.00 in Rain Light Rain
2:13 AM 53.6 °F 48.2 °F 82% 29.89 in 7.0 mi SSE 9.2 mph - 0.00 in   Overcast
2:17 AM 53.6 °F 48.2 °F 82% 29.89 in 10.0 mi SSE 8.1 mph - 0.00 in   Overcast
2:53 AM 53.1 °F 48.0 °F 83% 29.88 in 10.0 mi SE 8.1 mph - 0.00 in   Overcast
3:01 AM 53.6 °F 48.2 °F 82% 29.87 in 6.0 mi SE 9.2 mph - N/A   Haze
3:12 AM 53.6 °F 48.2 °F 82% 29.86 in 10.0 mi SE 5.8 mph - N/A   Overcast
3:27 AM 53.6 °F 48.2 °F 82% 29.85 in 10.0 mi ESE 6.9 mph - N/A   Overcast
3:53 AM 53.1 °F 46.9 °F 80% 29.84 in 10.0 mi ESE 5.8 mph - N/A   Overcast
4:53 AM 53.1 °F 46.9 °F 80% 29.81 in 9.0 mi East 6.9 mph - 0.00 in Rain Light Rain
5:53 AM 52.0 °F 48.0 °F 86% 29.77 in 6.0 mi East 4.6 mph - 0.05 in Rain Light Rain
6:53 AM 52.0 °F 48.0 °F 86% 29.73 in 5.0 mi East 5.8 mph - 0.02 in Rain Light Rain
7:14 AM 51.8 °F 48.2 °F 88% 29.72 in 2.5 mi ENE 5.8 mph - 0.02 in Rain Rain
7:24 AM 51.8 °F 48.2 °F 88% 29.71 in 3.0 mi ENE 6.9 mph - 0.03 in Rain Light Rain
7:53 AM 53.1 °F 48.9 °F 86% 29.70 in 2.5 mi ENE 8.1 mph - 0.07 in Rain Light Rain
8:00 AM 53.6 °F 48.2 °F 82% 29.69 in 3.0 mi ENE 8.1 mph - 0.01 in Rain Rain
8:07 AM 53.6 °F 48.2 °F 82% 29.69 in 2.5 mi ENE 5.8 mph - 0.02 in Rain Rain
8:53 AM 53.1 °F 48.9 °F 86% 29.67 in 2.5 mi ENE 4.6 mph - 0.11 in Rain Rain
9:53 AM 54.0 °F 50.0 °F 86% 29.65 in 1.5 mi Calm Calm - 0.14 in Rain Heavy Rain
10:11 AM 55.4 °F 50.0 °F 82% 29.64 in 2.5 mi Calm Calm - 0.06 in Rain Rain
10:24 AM 55.4 °F 50.0 °F 82% 29.64 in 1.5 mi ENE 5.8 mph - 0.09 in Rain Heavy Rain
10:42 AM 55.4 °F 50.0 °F 82% 29.64 in 2.5 mi East 5.8 mph - 0.15 in Rain Rain
10:53 AM 55.0 °F 50.0 °F 83% 29.64 in 2.0 mi East 6.9 mph - 0.17 in Rain Rain
11:22 AM 55.4 °F 51.8 °F 88% 29.63 in 1.8 mi ENE 6.9 mph - 0.06 in Rain Rain
11:32 AM 55.4 °F 51.8 °F 88% 29.63 in 2.0 mi East 8.1 mph - 0.08 in Rain Rain
11:39 AM 55.4 °F 51.8 °F 88% 29.63 in 1.2 mi East 5.8 mph - 0.10 in Rain Heavy Rain
11:53 AM 55.9 °F 51.1 °F 84% 29.63 in 1.2 mi East 6.9 mph - 0.15 in Rain Heavy Rain
12:03 PM 55.4 °F 51.8 °F 88% 29.62 in 2.0 mi East 8.1 mph - 0.02 in Rain Light Rain
12:11 PM 55.4 °F 51.8 °F 88% 29.62 in 3.0 mi ESE 10.4 mph - 0.02 in Rain Light Rain
12:51 PM 57.2 °F 51.8 °F 82% 29.63 in 1.8 mi SSE 9.2 mph - 0.04 in Rain Light Rain
12:53 PM 57.0 °F 52.0 °F 83% 29.63 in 1.2 mi Variable 6.9 mph - 0.04 in Rain Rain
1:00 PM 57.2 °F 51.8 °F 82% 29.63 in 1.8 mi Variable 3.5 mph - 0.01 in Rain Light Rain
1:02 PM 57.2 °F 51.8 °F 82% 29.63 in 3.0 mi Calm Calm - 0.01 in Rain Light Rain
1:11 PM 57.2 °F 53.6 °F 88% 29.63 in 4.0 mi Variable 3.5 mph - 0.01 in Rain Light Rain
1:24 PM 57.2 °F 53.6 °F 88% 29.64 in 6.0 mi Variable 5.8 mph - 0.02 in Rain Light Rain
1:34 PM 57.2 °F 53.6 °F 88% 29.64 in 2.5 mi SSE 5.8 mph - 0.02 in Rain Light Rain
1:37 PM 57.2 °F 53.6 °F 88% 29.64 in 1.8 mi SE 5.8 mph - 0.02 in Rain Light Rain
1:46 PM 57.2 °F 53.6 °F 88% 29.64 in 2.0 mi Variable 4.6 mph - 0.02 in Rain Light Rain
1:53 PM 57.9 °F 54.0 °F 87% 29.65 in 2.5 mi Variable 5.8 mph - 0.02 in Rain Light Rain
2:07 PM 57.2 °F 53.6 °F 88% 29.65 in 2.5 mi Variable 5.8 mph - 0.00 in Rain Light Rain
2:24 PM 57.2 °F 53.6 °F 88% 29.65 in 1.2 mi Variable 6.9 mph - 0.01 in Rain Light Rain
2:35 PM 57.2 °F 53.6 °F 88% 29.65 in 1.0 mi Variable 4.6 mph - 0.01 in Rain Light Rain
2:44 PM 57.2 °F 53.6 °F 88% 29.65 in 1.5 mi South 8.1 mph 16.1 mph 0.02 in Rain Light Rain
2:53 PM 57.9 °F 54.0 °F 87% 29.65 in 1.5 mi Variable 6.9 mph 17.3 mph 0.03 in Rain Light Rain
3:06 PM 57.2 °F 53.6 °F 88% 29.66 in 1.0 mi South 10.4 mph 23.0 mph 0.00 in Rain Light Rain
3:18 PM 57.2 °F 53.6 °F 88% 29.66 in 0.8 mi SSW 9.2 mph 17.3 mph 0.01 in Rain Light Rain
3:32 PM 57.2 °F 53.6 °F 88% 29.67 in 1.0 mi SSW 6.9 mph 16.1 mph 0.03 in Rain Light Rain
3:42 PM 57.2 °F 53.6 °F 88% 29.67 in 1.0 mi SSW 6.9 mph - 0.04 in Rain Light Rain
3:50 PM 57.2 °F 53.6 °F 88% 29.67 in 2.0 mi SSW 8.1 mph - 0.04 in Rain Light Rain
3:53 PM 57.0 °F 53.1 °F 87% 29.68 in 2.5 mi SSW 6.9 mph - 0.04 in Rain Light Rain
4:00 PM 57.2 °F 53.6 °F 88% 29.67 in 5.0 mi South 8.1 mph - 0.00 in   Overcast
4:27 PM 57.2 °F 53.6 °F 88% 29.68 in 6.0 mi SSW 9.2 mph 17.3 mph 0.00 in   Overcast
4:53 PM 55.9 °F 52.0 °F 87% 29.69 in 1.2 mi SSW 9.2 mph - 0.00 in Rain Light Rain
5:03 PM 55.4 °F 51.8 °F 88% 29.69 in 0.8 mi South 9.2 mph - 0.02 in Rain Light Rain
5:18 PM 55.4 °F 51.8 °F 88% 29.69 in 1.0 mi SW 8.1 mph - 0.03 in Rain Light Rain
5:53 PM 55.0 °F 52.0 °F 89% 29.70 in 1.0 mi SSW 8.1 mph - 0.06 in Rain Light Rain
6:10 PM 55.4 °F 51.8 °F 88% 29.70 in 0.8 mi South 6.9 mph 16.1 mph 0.01 in Rain Light Rain
6:40 PM 55.4 °F 51.8 °F 88% 29.70 in 1.2 mi Variable 5.8 mph - 0.03 in Rain Light Rain
6:53 PM 55.0 °F 51.1 °F 86% 29.70 in 0.8 mi South 6.9 mph - 0.04 in Rain Light Rain
7:06 PM 55.4 °F 51.8 °F 88% 29.70 in 1.0 mi South 8.1 mph - 0.01 in Rain Light Rain
7:23 PM 55.4 °F 51.8 °F 88% 29.70 in 0.8 mi Variable 6.9 mph - 0.02 in Rain Light Rain
7:35 PM 55.4 °F 51.8 °F 88% 29.70 in 1.0 mi Variable 6.9 mph - 0.03 in Rain Light Rain
7:53 PM 54.0 °F 51.1 °F 90% 29.71 in 0.8 mi South 6.9 mph - 0.04 in Rain Light Rain
8:07 PM 53.6 °F 51.8 °F 94% 29.71 in 1.5 mi South 5.8 mph - 0.01 in Rain Light Rain
8:13 PM 53.6 °F 51.8 °F 94% 29.71 in 3.0 mi Variable 4.6 mph - 0.01 in Rain Light Rain
8:18 PM 53.6 °F 51.8 °F 94% 29.71 in 1.8 mi Variable 4.6 mph - 0.01 in Rain Light Rain
8:24 PM 53.6 °F 50.0 °F 88% 29.71 in 0.8 mi SSE 8.1 mph - 0.01 in Rain Light Rain
8:53 PM 54.0 °F 51.1 °F 90% 29.71 in 0.8 mi South 5.8 mph - 0.04 in Rain Light Rain
9:11 PM 53.6 °F 51.8 °F 94% 29.71 in 1.2 mi Variable 3.5 mph - 0.01 in Rain Light Rain
9:19 PM 53.6 °F 51.8 °F 94% 29.72 in 1.5 mi South 10.4 mph 16.1 mph 0.02 in Rain Rain
9:27 PM 53.6 °F 50.0 °F 88% 29.72 in 2.0 mi South 8.1 mph 16.1 mph 0.03 in Rain Light Rain
9:46 PM 53.6 °F 50.0 °F 88% 29.73 in 4.0 mi South 8.1 mph - 0.03 in Rain Light Rain
9:53 PM 54.0 °F 50.0 °F 86% 29.73 in 1.8 mi South 5.8 mph - 0.06 in Rain Heavy Rain
10:06 PM 53.6 °F 50.0 °F 88% 29.73 in 3.0 mi Variable 5.8 mph 17.3 mph 0.02 in Rain Light Rain
10:14 PM 53.6 °F 50.0 °F 88% 29.74 in 8.0 mi Variable 6.9 mph - 0.02 in   Overcast
10:39 PM 53.6 °F 50.0 °F 88% 29.74 in 8.0 mi Variable 4.6 mph - 0.02 in   Overcast
10:53 PM 54.0 °F 50.0 °F 86% 29.75 in 4.0 mi South 5.8 mph - 0.02 in Rain Light Rain
11:53 PM 54.0 °F 50.0 °F 86% 29.75 in 3.0 mi Variable 6.9 mph - 0.00 in Rain Light Rain